Location: Bonningues
(50.7927°N, 2.0150°E)
Time: 21:38:33
(UTC+00:00)

Cosmos 2322 Rocket - Pass Details

Date: 08 August 2020
Orbit: 831 x 852 km, 71.0° (Epoch: 21 September)

Event Time Altitude Azimuth Distance (km) Brightness Sun altitude
Rises 20:10:40 0° 331° (NNW) 3,415 6.7 -7.0°
Reaches altitude 10° 20:13:46 10° 348° (NNW) 2,480 5.4 -7.4°
Maximum altitude 20:17:59 21° 36° (NE) 1,838 4.0 -8.0°
Drops below altitude 10° 20:22:12 10° 84° (E) 2,482 4.2 -8.5°
Enters shadow 20:23:49 - 94° (E) 2,948 4.5 -8.7°
